Time,TemperatureF,DewpointF,PressureIn,WindDirection,WindDirectionDegrees,WindSpeedMPH,WindSpeedGustMPH,Humidity,HourlyPrecipIn,Conditions,Clouds,dailyrainin,SoftwareType,DateUTC
2013-01-21 00:00:00,40.0,39.0,-100.00,North,4,4.0,-999.0,94,0.00,,,0.00,,2013-01-21 06:00:00,
2013-01-21 00:33:00,40.0,39.0,-100.00,North,4,4.0,-999.0,94,0.00,,,0.00,,2013-01-21 06:33:00,
2013-01-21 00:43:00,40.0,39.0,-100.00,North,4,4.0,-999.0,94,0.00,,,0.00,,2013-01-21 06:43:00,
2013-01-21 00:53:00,40.0,39.0,-100.00,North,4,4.0,-999.0,94,0.00,,,0.00,,2013-01-21 06:53:00,
2013-01-21 01:00:00,39.0,38.0,-100.00,North,8,4.0,-999.0,95,0.00,,,0.00,,2013-01-21 07:00:00,
2013-01-21 01:33:00,39.0,38.0,-100.00,North,8,4.0,-999.0,95,0.00,,,0.00,,2013-01-21 07:33:00,
2013-01-21 01:42:00,39.0,38.0,-100.00,North,8,4.0,-999.0,95,0.00,,,0.00,,2013-01-21 07:42:00,
2013-01-21 01:53:00,39.0,38.0,-100.00,North,8,4.0,-999.0,95,0.00,,,0.00,,2013-01-21 07:53:00,
2013-01-21 02:00:00,39.0,38.0,-100.00,North,4,4.0,-999.0,96,0.00,,,0.00,,2013-01-21 08:00:00,
2013-01-21 02:32:00,39.0,38.0,-100.00,North,4,4.0,-999.0,96,0.00,,,0.00,,2013-01-21 08:32:00,
2013-01-21 02:43:00,39.0,38.0,-100.00,North,4,4.0,-999.0,96,0.00,,,0.00,,2013-01-21 08:43:00,
2013-01-21 02:53:00,39.0,38.0,-100.00,North,4,4.0,-999.0,96,0.00,,,0.00,,2013-01-21 08:53:00,
2013-01-21 03:00:00,40.0,39.0,-100.00,North,3,4.0,-999.0,95,0.00,,,0.00,,2013-01-21 09:00:00,
2013-01-21 03:33:00,40.0,39.0,-100.00,North,3,4.0,-999.0,95,0.00,,,0.00,,2013-01-21 09:33:00,
2013-01-21 03:43:00,40.0,39.0,-100.00,North,3,4.0,-999.0,95,0.00,,,0.00,,2013-01-21 09:43:00,
2013-01-21 03:53:00,40.0,39.0,-100.00,North,3,4.0,-999.0,95,0.00,,,0.00,,2013-01-21 09:53:00,
2013-01-21 04:00:00,40.0,39.0,-100.00,North,359,0.0,-999.0,96,0.00,,,0.00,,2013-01-21 10:00:00,
2013-01-21 04:32:00,40.0,39.0,-100.00,North,359,0.0,-999.0,96,0.00,,,0.00,,2013-01-21 10:32:00,
2013-01-21 04:43:00,40.0,39.0,-100.00,North,359,0.0,-999.0,96,0.00,,,0.00,,2013-01-21 10:43:00,
2013-01-21 04:53:00,40.0,39.0,-100.00,North,359,0.0,-999.0,96,0.00,,,0.00,,2013-01-21 10:53:00,
2013-01-21 05:00:00,40.0,39.0,-100.00,North,3,4.0,-999.0,98,0.00,,,0.00,,2013-01-21 11:00:00,
2013-01-21 05:33:00,40.0,39.0,-100.00,North,3,4.0,-999.0,98,0.00,,,0.00,,2013-01-21 11:33:00,
2013-01-21 05:43:00,40.0,39.0,-100.00,North,3,4.0,-999.0,98,0.00,,,0.00,,2013-01-21 11:43:00,
2013-01-21 05:53:00,40.0,39.0,-100.00,North,3,4.0,-999.0,98,0.00,,,0.00,,2013-01-21 11:53:00,
2013-01-21 06:00:00,39.0,38.0,-100.00,North,7,7.0,-999.0,96,0.00,,,0.00,,2013-01-21 12:00:00,
2013-01-21 06:33:00,39.0,38.0,-100.00,North,7,7.0,-999.0,96,0.00,,,0.00,,2013-01-21 12:33:00,
2013-01-21 06:43:00,39.0,38.0,-100.00,North,7,7.0,-999.0,96,0.00,,,0.00,,2013-01-21 12:43:00,
2013-01-21 06:53:00,39.0,38.0,-100.00,North,7,7.0,-999.0,96,0.00,,,0.00,,2013-01-21 12:53:00,
2013-01-21 07:00:00,41.0,35.0,-100.00,North,3,6.0,-999.0,81,0.00,,,0.00,,2013-01-21 13:00:00,
2013-01-21 07:33:00,41.0,35.0,-100.00,North,3,6.0,-999.0,81,0.00,,,0.00,,2013-01-21 13:33:00,
2013-01-21 07:43:00,41.0,35.0,-100.00,North,3,6.0,-999.0,81,0.00,,,0.00,,2013-01-21 13:43:00,
2013-01-21 07:54:00,41.0,35.0,-100.00,North,3,6.0,-999.0,81,0.00,,,0.00,,2013-01-21 13:54:00,
2013-01-21 08:00:00,41.0,32.0,-100.00,North,2,9.0,-999.0,69,0.00,,,0.00,,2013-01-21 14:00:00,
2013-01-21 08:32:00,41.0,32.0,-100.00,North,2,9.0,-999.0,69,0.00,,,0.00,,2013-01-21 14:32:00,
2013-01-21 08:43:00,41.0,32.0,-100.00,North,2,9.0,-999.0,69,0.00,,,0.00,,2013-01-21 14:43:00,
2013-01-21 08:53:00,41.0,32.0,-100.00,North,2,9.0,-999.0,69,0.00,,,0.00,,2013-01-21 14:53:00,
2013-01-21 09:00:00,41.0,31.0,-100.00,North,8,4.0,-999.0,66,0.00,,,0.00,,2013-01-21 15:00:00,
2013-01-21 09:33:00,41.0,31.0,-100.00,North,8,4.0,-999.0,66,0.00,,,0.00,,2013-01-21 15:33:00,
2013-01-21 09:43:00,41.0,31.0,-100.00,North,8,4.0,-999.0,66,0.00,,,0.00,,2013-01-21 15:43:00,
2013-01-21 09:53:00,41.0,31.0,-100.00,North,8,4.0,-999.0,66,0.00,,,0.00,,2013-01-21 15:53:00,
2013-01-21 10:00:00,44.0,31.0,-100.00,North,6,9.0,-999.0,61,0.00,,,0.00,,2013-01-21 16:00:00,
2013-01-21 10:33:00,44.0,31.0,-100.00,North,6,9.0,-999.0,61,0.00,,,0.00,,2013-01-21 16:33:00,
2013-01-21 10:43:00,44.0,31.0,-100.00,North,6,9.0,-999.0,61,0.00,,,0.00,,2013-01-21 16:43:00,
2013-01-21 10:53:00,44.0,31.0,-100.00,North,6,9.0,-999.0,61,0.00,,,0.00,,2013-01-21 16:53:00,
2013-01-21 11:00:00,48.0,33.0,-100.00,NE,38,2.0,-999.0,57,0.00,,,0.00,,2013-01-21 17:00:00,
2013-01-21 11:33:00,48.0,33.0,-100.00,NE,38,2.0,-999.0,57,0.00,,,0.00,,2013-01-21 17:33:00,
2013-01-21 11:43:00,48.0,33.0,-100.00,NE,38,2.0,-999.0,57,0.00,,,0.00,,2013-01-21 17:43:00,
2013-01-21 11:53:00,48.0,33.0,-100.00,NE,38,2.0,-999.0,57,0.00,,,0.00,,2013-01-21 17:53:00,
2013-01-21 12:00:00,51.0,35.0,-100.00,NNE,31,4.0,-999.0,54,0.00,,,0.00,,2013-01-21 18:00:00,
2013-01-21 12:33:00,51.0,35.0,-100.00,NNE,31,4.0,-999.0,54,0.00,,,0.00,,2013-01-21 18:33:00,
2013-01-21 12:43:00,51.0,35.0,-100.00,NNE,31,4.0,-999.0,54,0.00,,,0.00,,2013-01-21 18:43:00,
2013-01-21 12:53:00,51.0,35.0,-100.00,NNE,31,4.0,-999.0,54,0.00,,,0.00,,2013-01-21 18:53:00,
2013-01-21 13:00:00,53.0,33.0,-100.00,North,5,5.0,-999.0,48,0.00,,,0.00,,2013-01-21 19:00:00,
2013-01-21 13:33:00,53.0,33.0,-100.00,North,5,5.0,-999.0,48,0.00,,,0.00,,2013-01-21 19:33:00,
2013-01-21 13:43:00,53.0,33.0,-100.00,North,5,5.0,-999.0,48,0.00,,,0.00,,2013-01-21 19:43:00,
2013-01-21 13:53:00,53.0,33.0,-100.00,North,5,5.0,-999.0,48,0.00,,,0.00,,2013-01-21 19:53:00,
2013-01-21 15:00:00,56.0,34.0,-100.00,North,9,1.0,-999.0,43,0.00,,,0.00,,2013-01-21 21:00:00,
2013-01-21 15:33:00,56.0,34.0,-100.00,North,9,1.0,-999.0,43,0.00,,,0.00,,2013-01-21 21:33:00,
2013-01-21 15:43:00,56.0,34.0,-100.00,North,9,1.0,-999.0,43,0.00,,,0.00,,2013-01-21 21:43:00,
2013-01-21 15:53:00,56.0,34.0,-100.00,North,9,1.0,-999.0,43,0.00,,,0.00,,2013-01-21 21:53:00,
2013-01-21 16:00:00,56.0,33.0,-100.00,North,359,2.0,-999.0,42,0.00,,,0.00,,2013-01-21 22:00:00,
2013-01-21 16:33:00,56.0,33.0,-100.00,North,359,2.0,-999.0,42,0.00,,,0.00,,2013-01-21 22:33:00,
2013-01-21 16:43:00,56.0,33.0,-100.00,North,359,2.0,-999.0,42,0.00,,,0.00,,2013-01-21 22:43:00,
2013-01-21 16:53:00,56.0,33.0,-100.00,North,359,2.0,-999.0,42,0.00,,,0.00,,2013-01-21 22:53:00,
2013-01-21 17:00:00,55.0,33.0,-100.00,North,358,0.0,-999.0,43,0.00,,,0.00,,2013-01-21 23:00:00,
2013-01-21 17:33:00,55.0,33.0,-100.00,North,358,0.0,-999.0,43,0.00,,,0.00,,2013-01-21 23:33:00,
2013-01-21 17:43:00,55.0,33.0,-100.00,North,358,0.0,-999.0,43,0.00,,,0.00,,2013-01-21 23:43:00,
2013-01-21 17:53:00,55.0,33.0,-100.00,North,358,0.0,-999.0,43,0.00,,,0.00,,2013-01-21 23:53:00,
2013-01-21 18:00:00,51.0,34.0,-100.00,SE,141,0.0,-999.0,52,0.00,,,0.00,,2013-01-22 00:00:00,
2013-01-21 18:33:00,51.0,34.0,-100.00,SE,141,0.0,-999.0,52,0.00,,,0.00,,2013-01-22 00:33:00,
2013-01-21 18:43:00,51.0,34.0,-100.00,SE,141,0.0,-999.0,52,0.00,,,0.00,,2013-01-22 00:43:00,
2013-01-21 18:53:00,51.0,34.0,-100.00,SE,141,0.0,-999.0,52,0.00,,,0.00,,2013-01-22 00:53:00,
2013-01-21 19:00:00,44.0,33.0,-100.00,SSE,161,1.0,-999.0,65,0.00,,,0.00,,2013-01-22 01:00:00,
2013-01-21 19:33:00,44.0,33.0,-100.00,SSE,161,1.0,-999.0,65,0.00,,,0.00,,2013-01-22 01:33:00,
2013-01-21 19:43:00,44.0,33.0,-100.00,SSE,161,1.0,-999.0,65,0.00,,,0.00,,2013-01-22 01:43:00,
2013-01-21 19:52:00,44.0,33.0,-100.00,SSE,161,1.0,-999.0,65,0.00,,,0.00,,2013-01-22 01:52:00,
2013-01-21 20:00:00,44.0,34.0,-100.00,SSE,149,0.0,-999.0,66,0.00,,,0.00,,2013-01-22 02:00:00,
2013-01-21 20:32:00,44.0,34.0,-100.00,SSE,149,0.0,-999.0,66,0.00,,,0.00,,2013-01-22 02:32:00,
2013-01-21 20:43:00,44.0,34.0,-100.00,SSE,149,0.0,-999.0,66,0.00,,,0.00,,2013-01-22 02:43:00,
2013-01-21 20:53:00,44.0,34.0,-100.00,SSE,149,0.0,-999.0,66,0.00,,,0.00,,2013-01-22 02:53:00,
2013-01-21 21:00:00,41.0,35.0,-100.00,North,7,4.0,-999.0,79,0.00,,,0.00,,2013-01-22 03:00:00,
2013-01-21 21:32:00,41.0,35.0,-100.00,North,7,4.0,-999.0,79,0.00,,,0.00,,2013-01-22 03:32:00,
2013-01-21 21:42:00,41.0,35.0,-100.00,North,7,4.0,-999.0,79,0.00,,,0.00,,2013-01-22 03:42:00,
2013-01-21 21:53:00,41.0,35.0,-100.00,North,7,4.0,-999.0,79,0.00,,,0.00,,2013-01-22 03:53:00,
2013-01-21 22:00:00,38.0,33.0,-100.00,North,9,0.0,-999.0,83,0.00,,,0.00,,2013-01-22 04:00:00,
2013-01-21 22:32:00,38.0,33.0,-100.00,North,9,0.0,-999.0,83,0.00,,,0.00,,2013-01-22 04:32:00,
2013-01-21 22:42:00,38.0,33.0,-100.00,North,9,0.0,-999.0,83,0.00,,,0.00,,2013-01-22 04:42:00,
2013-01-21 22:52:00,38.0,33.0,-100.00,North,9,0.0,-999.0,83,0.00,,,0.00,,2013-01-22 04:52:00,
2013-01-21 23:00:00,36.0,33.0,-100.00,North,7,2.0,-999.0,87,0.00,,,0.00,,2013-01-22 05:00:00,
2013-01-21 23:32:00,36.0,33.0,-100.00,North,7,2.0,-999.0,87,0.00,,,0.00,,2013-01-22 05:32:00,
2013-01-21 23:43:00,36.0,33.0,-100.00,North,7,2.0,-999.0,87,0.00,,,0.00,,2013-01-22 05:43:00,
2013-01-21 23:53:00,36.0,33.0,-100.00,North,7,2.0,-999.0,87,0.00,,,0.00,,2013-01-22 05:53:00,